Regional Weather Roundup
Issued by NWS

Home | Current Version | Previous Version | Text Only | Print | Product List | Glossary Off
Versions: 1 2 3 4 5 6 7 8 9 10 11 12 13 14 15 16 17 18 19 20 21 22 23 24 25 26 27 28 29 30 31 32 33 34 35 36 37 38 39 40 41 42 43 44 45 46 47 48 49 50

000
ASUS45 KTFX 011710
RWRMT
MONTANA REGIONAL WEATHER ROUNDUP
NATIONAL WEATHER SERVICE GREAT FALLS MT
1100 AM MDT WED JUL 01 2015

NOTE: "FAIR" INDICATES FEW OR NO CLOUDS BELOW 12000 FEET WITH NO
SIGNIFICANT WEATHER AND/OR OBSTRUCTIONS TO VISIBILITY.

MTZ001>007-043-011800-
WEST OF THE DIVIDE

CITY           SKY/WX    TMP DP  RH WIND       PRES   REMARKS
KALISPELL      MOSUNNY   79  51  37 CALM      30.04S
MISSOULA       SUNNY     78  49  35 VRB5      30.07F
BUTTE          SUNNY     77  41  27 N9        30.19F
MULLAN PASS    SUNNY     71  44  37 VRB6      30.23S
DEER LODGE       N/A     79  46  31 CALM      30.18F
EUREKA           N/A     73  55  53 NW3       30.07F
HAMILTON         N/A     81  50  34 E3        30.08F
PLAINS           N/A     82  50  32 CALM      30.02F
RONAN            N/A     81  56  42 NW2       30.09S
$$

MTZ008-052>055-011800-
SOUTHWEST MONTANA

CITY           SKY/WX    TMP DP  RH WIND       PRES   REMARKS
BOZEMAN        SUNNY     80  48  32 S3        30.12F
DILLON         SUNNY     81  44  27 VRB6      30.15F
W YELLOWSTONE  SUNNY     73  48  40 CALM      30.25S
THREE FORKS      N/A     81  59  47 CALM      30.09F
TWIN BRIDGES     N/A     77  49  37 SW6       30.12F
$$

MTZ009-010-012-014-046-048-049-054-011800-
EAST SLOPES AND CENTRAL MONTANA

CITY           SKY/WX    TMP DP  RH WIND       PRES   REMARKS
CUT BANK       CLOUDY    72  54  53 N5        30.08S HAZE
GREAT FALLS    SUNNY     80  52  37 VRB6      30.05S
MALMSTROM AFB  SUNNY     79  52  39 N2        30.05F
HELENA         SUNNY     85  49  28 VRB3      30.06F
CONRAD           N/A     76  62  61 NW6       30.09S
$$

MTZ011-013-016-021-045-047-050-051-011800-
NORTH CENTRAL MONTANA

CITY           SKY/WX    TMP DP  RH WIND       PRES   REMARKS
HAVRE          PTSUNNY   67  60  78 CALM      30.04F HAZE
LEWISTOWN      SUNNY     80  52  37 N6        30.08F
CHINOOK          N/A     72  61  68 N5        30.02F
FORT BENTON      N/A     77  55  47 CALM      30.04S
$$

MTZ017>020-022>027-061-062-011800-
NORTHEAST MONTANA

CITY           SKY/WX    TMP DP  RH WIND       PRES   REMARKS
GLASGOW        CLOUDY    72  60  66 CALM      30.00S HAZE
JORDAN           N/A     75  60  59 E7        30.01S
SIDNEY         MOSUNNY   70  61  73 NW5       30.01R
WOLF POINT     MOSUNNY   74  61  63 E6        30.00F HAZE
MALTA            N/A     76  58  53 CALM      29.97F
PLENTYWOOD       N/A     70  61  73 CALM      30.01R
POPLAR           N/A     72  63  73 NE3       30.01F
SCOBEY           N/A     69  56  63 NE2       30.00R
$$

MTZ028>42-056>058-011800-
SOUTHCENTRAL AND SOUTHEAST MONTANA

CITY           SKY/WX    TMP DP  RH WIND       PRES   REMARKS
BAKER          CLOUDY    70  62  76 VRB3      30.03R
BILLINGS       MOSUNNY   83  49  30 VRB3      30.06S
LIVINGSTON     SUNNY     83  49  30 VRB5      30.10F
MILES CITY     SUNNY     77  61  57 N8        30.00R HAZE
FORSYTH          N/A     81  55  41 W3        30.00S
LAUREL           N/A     82  48  30 E3        30.04S
ROUNDUP          N/A     83  51  32 CALM      29.96F
$$

REGIONAL REPORTS...DAKOTAS

CITY           SKY/WX    TMP DP  RH WIND       PRES   REMARKS
WILLISTON      CLOUDY    69  59  70 VRB3      30.00R
MINOT          CLOUDY    67  61  81 CALM      29.96R
DICKINSON      CLOUDY    65  59  81 E6        29.99R HAZE
BEACH          LGT RAIN  66  66 100 N5        30.03R
CROSBY         PTSUNNY   68  68 100 CALM      29.99F FOG
BISMARCK       PTSUNNY   72  63  73 SE3       29.96R
GRAND FORKS    MOSUNNY   76  59  55 CALM      29.95R
FARGO          MOSUNNY   74  62  66 S10       29.96S
BUFFALO SD       N/A     71  62  73 NE7       29.95R
RAPID CITY     SUNNY     80  59  48 N23G30    29.99R HAZE
$$

REGIONAL REPORTS...WYOMING/IDAHO/WASHINGTON

CITY           SKY/WX    TMP DP  RH WIND       PRES   REMARKS
GILLETTE       SUNNY     80  52  37 N9        30.09S
SHERIDAN       SUNNY     83  49  30 VRB6      30.07S
BUFFALO WY     SUNNY     79  48  33 VRB5      30.13F
CODY           SUNNY     79  48  34 NE3       30.13S
YELLOWSTONE LA   N/A     65  48  54 E5        30.35F
IDAHO FALLS    SUNNY     78  61  55 SW9       30.13F
SALMON         SUNNY     79  50  36 CALM      30.07F
BOISE          SUNNY     86  54  33 NW8       30.02F
SPOKANE        SUNNY     81  50  33 VRB5      30.02S
$$

REGIONAL REPORTS...ALBERTA

CITY           SKY/WX    TMP DP  RH WIND       PRES   REMARKS
EDMONTON       CLOUDY    64  55  72 NW6       30.03S
CALGARY        PTSUNNY   63  54  72 NW13G21   30.14R
LETHBRIDGE     PTSUNNY   68  57  68 NW13      30.12R
MEDICINE HAT   PTSUNNY   72  59  64 VRB5      30.04R SMOKE
MILK RIVER       N/A     68  59  73 N12         N/A
ONEFOUR          N/A     66  59  77 S2          N/A
$$

REGIONAL REPORTS...SASKATCHEWAN

CITY           SKY/WX    TMP DP  RH WIND       PRES   REMARKS
SWIFT CURRENT  SUNNY     72  52  49 NW8       30.01F HAZE
REGINA         CLOUDY    64  59  82 W3        29.99S SMOKE
SASKATOON      PTSUNNY   68  61  77 W7        29.97R
CYPRESS HILLS    N/A     66  55  68 N5          N/A
VAL MARIE        N/A     73  55  53 SE2         N/A
ROCKGLEN         N/A     72  55  56 N5          N/A
ASSINIBOIA       N/A     64  63  94 W10         N/A
$$



USA.gov is the U.S. government's official web portal to all federal, state and local government web resources and services.